Retour au catalogue

ICEYE-X67

ActifScienceVLEO
NORAD 66302·PAYLOAD·🇦🇪 UAE

Lancé Nov 2, 2025 depuis Cape Canaveral Space Force Station

Loading…

Prochains Passages (prochaines 24 heures)

TLE

FraisSource: Space-Track

Époque: Sep 14, 2026, 02:09 UTC

1 66302U 25248K   26257.08977108  .00001480  00000-0  10661-3 0  9990
2 66302  45.4075  24.6466 0006169 172.7836 187.3137 15.09423283 48951

Suivez ICEYE-X67 en temps réel avec AllMySat

Download on the App Store